Home > Weather > Thusis > Past weeks

Flag for Switzerland Past Weather in Thusis, Graubünden, Switzerland — Yesterday and Last 2 Weeks

Now
66 °F

Mild.


Feels Like: 66 °F
Forecast: 53 / 74 °F
Wind: No wind

Location: Chur

Current Time: Jul 25, 2016 at 10:16:19 AM

Latest Report: Jul 25, 2016 at 9:00 AM


Visibility: N/A

Pressure: 30.11 "Hg (27.69 "Hg at 718m altitude)

Humidity: 85%

Dew Point: 62 °F

Location of ThusisLocation

Past Weather in Thusis — Graph

°F

Thusis Temperature Yesterday

Maximum temperature yesterday: 79 °F (at 4:00 PM)
Minimum temperature yesterday: 61 °F (at 7:00 AM)
Average temperature yesterday: 69 °F

High & Low Weather Summary for the Past Weeks

 TemperatureHumidityPressure
High89 °F (Jul 20, 4:00 PM)96% (Jul 12, 6:00 AM)30.39 "Hg (Jul 12, 6:00 AM)
Low47 °F (Jul 16, 6:00 AM)33% (Jul 20, 3:00 PM)29.77 "Hg (Jul 11, 4:00 PM)
Average66 °F73%30.07 "Hg
* Reported Jul 10 9:00 AM — Jul 25 9:00 AM, Thusis, Weather by CustomWeather, © 2016

Note: Actual official high and low records may vary slightly from our data, if they occured in-between our weather recording intervals... More about our weather records

Advertising

Thusis Weather History for the Previous 24 Hours

Scroll right to see more
 ConditionsComfort  
Time TempWeatherWind HumidityBarometerVisibility
9:00 AM
Mon, Jul 25
66 °FMild.No wind85%30.11 "HgN/A
8:00 AM64 °FLow clouds.1 mph90%30.12 "Hg7 mi
7:00 AM63 °FMild.2 mph91%30.12 "HgN/A
6:00 AM62 °FMild.No wind93%30.11 "HgN/A
5:00 AM61 °FCool.1 mph94%30.11 "Hg9 mi
4:00 AM62 °FCool.1 mph93%30.12 "HgN/A
3:00 AM62 °FCool.No wind95%30.12 "HgN/A
2:00 AM62 °FCool.1 mph95%30.12 "Hg9 mi
1:00 AM64 °FMild.1 mph93%30.12 "HgN/A
12:00 AM65 °FMild.2 mph90%30.11 "HgN/A
11:00 PM
Sun, Jul 24
66 °FMild.5 mph87%30.10 "Hg9 mi
10:00 PM67 °FMild.9 mph82%30.07 "HgN/A
9:00 PM70 °FMild.12 mph76%30.05 "HgN/A
8:00 PM72 °FMild.8 mph71%30.02 "HgN/A
7:00 PM75 °FMild.7 mph63%29.99 "HgN/A
6:00 PM75 °FMild.3 mph60%29.99 "HgN/A
5:00 PM79 °FOvercast.12 mph59%29.97 "Hg10 mi
4:00 PM79 °FWarm.16 mph56%29.96 "HgN/A
3:00 PM79 °FWarm.16 mph57%29.97 "HgN/A
2:00 PM77 °FPartly sunny.15 mph57%29.99 "Hg12 mi
1:00 PM76 °FMild.12 mph60%30.00 "HgN/A
12:00 PM75 °FMild.7 mph58%30.02 "HgN/A
11:00 AM71 °FMild.1 mph59%30.05 "HgN/A
10:00 AM70 °FMild.2 mph66%30.07 "HgN/A
Weather by CustomWeather, © 2016

See weather overviewHow to use our weather pages